Wind_Speed
38 36 35 34 31 29 28 26 25 23 23 24 23 21 20 19 18 17 17 17 16 15 14 14 14 14 13 12 11 10 9 9 8 8 9 9 9 10 10 10 10 11 11 11 12 12 11 10 10 9 9 9 8 8 9 9 9 8 8 8 7 8 8
41 40 37 35 32 30 28 26 25 25 25 24 23 22 20 19 19 18 17 17 16 16 15 15 15 14 13 12 11 11 10 9 8 8 7 7 8 9 9 9 9 10 10 10 11 11 11 11 10 10 9 9 9 9 9 9 9 9 8 8 8 8 8
42 41 38 35 32 30 28 26 26 26 25 24 24 22 21 21 20 18 17 17 17 17 16 15 15 15 14 13 12 11 11 10 9 9 8 7 8 8 8 8 8 9 10 10 10 11 11 10 10 10 10 9 9 9 9 8 9 9 8 7 8 8 8
38 39 38 35 32 31 29 27 26 26 24 24 24 22 22 22 21 19 17 17 18 18 17 16 16 15 14 13 13 12 11 10 10 9 9 8 7 8 8 8 9 9 9 9 10 10 9 9 9 9 9 9 9 9 9 9 8 8 8 8 8 8 8
34 39 40 37 33 32 31 28 26 25 23 23 23 23 24 23 22 20 18 18 18 18 18 17 17 16 16 14 13 13 12 11 12 11 9 9 8 7 7 7 8 8 8 8 9 8 9 8 9 9 8 8 9 9 9 9 9 9 9 8 8 8 8
33 38 41 39 36 33 30 28 27 25 23 23 24 24 24 24 23 22 20 19 19 19 19 19 18 17 17 16 15 14 13 13 13 12 12 11 10 8 8 8 8 8 8 8 8 8 9 9 9 9 8 8 9 9 9 9 9 9 8 8 8 8 8
30 37 41 40 37 33 31 28 27 25 24 25 25 24 25 24 23 23 23 22 21 20 20 19 19 18 17 16 16 15 14 14 14 13 13 12 11 10 9 9 9 8 8 7 8 8 9 8 9 9 8 8 9 9 9 8 8 8 8 8 8 8 8
27 36 40 40 37 35 33 30 27 25 24 25 24 23 24 24 24 24 25 26 25 22 20 20 19 18 17 17 16 15 15 14 14 14 14 13 13 12 11 10 10 9 8 7 8 8 8 8 9 9 9 9 9 9 9 8 7 8 8 8 8 8 8
25 34 38 38 35 34 33 30 29 27 25 25 24 23 23 24 25 24 24 27 24 21 19 19 19 18 18 17 16 15 15 14 14 14 14 14 14 13 13 12 11 10 9 8 8 8 9 10 10 9 9 9 9 10 9 8 8 8 8 8 7 8 8
22 30 35 36 34 34 34 32 31 29 27 25 24 24 24 24 23 22 23 25 20 16 18 20 20 20 19 17 17 16 15 15 15 15 14 14 14 14 14 13 13 12 11 11 10 9 9 10 11 9 9 10 10 10 9 9 9 9 7 7 7 8 8
21 28 33 35 34 34 35 34 33 31 30 28 26 26 26 25 23 21 22 22 18 16 19 20 20 21 19 18 18 17 16 16 16 16 15 15 15 14 14 14 14 13 13 12 12 11 11 11 11 10 10 11 10 11 10 10 10 9 7 8 8 8 8
21 26 30 33 35 37 36 35 34 34 33 32 29 29 29 28 27 24 22 22 20 19 21 21 21 21 19 18 18 18 17 17 17 17 16 16 15 15 15 15 15 14 14 13 13 13 13 12 12 11 11 11 11 11 11 11 11 10 9 9 8 7 7
19 23 26 29 33 37 38 37 36 36 35 34 32 33 33 32 31 27 24 24 23 21 22 21 20 20 20 19 18 19 19 19 18 18 17 17 16 16 16 15 15 15 15 14 14 14 14 14 14 13 11 12 12 12 12 12 12 11 11 10 9 9 8
20 22 24 26 28 32 37 38 37 36 35 34 34 34 34 32 31 28 25 25 24 23 23 21 20 20 21 20 20 21 21 21 22 21 20 18 17 17 17 16 16 15 15 16 16 15 15 15 15 14 13 12 13 13 13 13 13 12 12 11 11 11 10
23 21 21 23 25 28 33 36 38 38 35 34 34 33 33 32 31 28 27 25 24 24 24 24 23 23 23 22 22 23 22 24 25 24 22 21 21 20 18 18 18 17 17 17 17 16 16 15 15 16 14 12 13 14 15 14 13 13 12 12 12 12 12
22 22 21 22 24 26 29 31 33 35 35 32 31 30 31 33 33 31 30 28 26 26 26 27 27 27 26 26 26 26 26 26 25 23 21 22 24 24 22 21 20 20 20 20 19 18 18 17 16 16 15 14 14 14 15 16 14 13 13 13 13 13 13
20 21 23 23 23 24 24 25 26 29 30 29 29 29 31 32 33 32 32 31 29 28 27 27 29 30 29 28 29 30 30 29 27 25 24 24 25 25 26 25 23 23 23 22 22 22 20 19 17 16 16 16 16 15 16 17 15 13 14 14 14 14 13
19 19 21 21 20 20 20 21 21 22 23 23 25 27 29 30 31 31 30 30 29 28 26 25 28 31 31 30 30 30 31 30 29 28 27 27 28 28 29 28 27 27 27 26 26 25 22 21 20 19 18 17 17 18 18 17 16 15 15 15 15 15 14
16 18 20 19 17 16 16 16 17 19 21 22 25 27 27 27 28 28 27 27 28 27 26 26 28 30 30 31 31 31 31 29 29 28 27 28 29 30 31 30 29 30 31 31 29 25 22 22 22 22 21 19 20 22 20 17 16 16 16 16 16 16 15
13 15 18 18 17 17 16 14 15 17 19 20 22 24 24 24 25 26 27 29 30 30 29 29 29 29 30 31 32 32 32 31 29 30 29 28 28 29 29 28 28 30 31 32 31 27 25 26 24 24 24 23 23 23 21 19 19 18 17 17 17 16 16
16 17 16 16 16 16 15 15 15 16 16 16 17 19 20 21 23 25 28 30 32 32 32 32 31 30 30 30 30 30 31 30 30 30 30 30 30 30 31 30 30 31 33 34 33 30 30 32 29 27 26 25 24 24 22 21 21 20 19 19 18 17 17
17 18 16 16 15 14 15 16 17 16 17 18 19 19 20 21 23 24 26 28 30 31 31 31 30 29 29 28 27 28 28 30 30 30 31 33 33 33 34 34 34 34 35 37 36 35 35 36 33 30 29 27 26 26 24 23 23 22 21 21 21 19 19
17 17 15 15 14 13 14 16 16 18 19 21 21 21 21 23 23 24 25 25 26 28 28 27 27 27 26 25 25 25 26 27 28 29 30 32 32 31 31 32 33 33 34 36 39 40 40 38 35 32 31 30 29 27 24 23 25 25 23 22 21 20 21
17 17 14 14 16 15 15 15 15 17 18 19 19 19 20 22 23 24 24 24 25 26 26 26 25 25 25 24 24 24 24 25 25 26 27 28 27 26 26 27 28 30 31 33 37 40 40 39 38 35 33 33 33 31 28 27 27 28 26 24 22 21 21
13 13 12 14 15 14 14 14 14 14 15 16 17 18 18 20 22 23 22 22 24 25 25 25 25 25 25 25 24 23 22 22 23 24 24 25 24 24 25 25 25 25 26 27 31 33 35 36 37 36 35 36 35 33 32 30 30 31 30 27 24 23 23
8 8 9 9 10 11 13 13 12 11 12 13 14 13 13 15 16 16 16 17 19 19 20 21 22 22 22 22 22 21 20 20 21 21 21 21 22 22 23 23 23 23 22 22 24 27 29 30 31 32 34 36 36 35 34 32 30 31 33 31 28 25 24
5 7 9 10 11 13 13 12 11 10 11 11 11 11 11 11 11 11 12 13 13 13 14 15 16 17 17 18 18 18 18 18 18 19 19 18 17 18 19 19 20 21 21 21 20 21 22 23 24 24 27 31 33 34 35 34 32 31 32 35 34 32 30
8 10 11 12 12 12 11 12 12 12 11 11 11 12 12 12 12 11 11 12 12 13 13 13 13 14 15 16 15 15 16 18 18 18 18 17 15 15 16 16 17 19 20 20 20 19 19 19 19 19 20 23 26 27 29 31 32 31 31 33 35 35 35
7 8 8 9 9 9 9 10 10 9 9 9 11 12 12 12 12 12 12 12 12 13 14 14 13 13 14 15 14 14 14 16 16 17 18 17 16 15 15 15 16 16 17 18 19 19 18 17 18 19 19 19 19 19 20 21 24 29 32 34 35 35 34
4 6 7 7 7 7 7 7 7 7 8 8 9 11 11 10 10 10 11 10 10 10 10 10 11 11 10 10 10 10 11 11 12 13 14 14 15 15 15 15 15 15 16 16 17 18 18 17 18 20 20 19 18 18 20 21 23 26 29 31 32 33 32
4 6 7 7 6 6 7 7 7 7 7 8 8 8 9 9 8 8 8 8 7 6 6 6 7 7 7 7 6 6 7 8 9 10 10 10 11 12 13 13 14 15 15 16 16 17 18 18 17 16 17 19 20 21 23 25 23 22 24 26 27 28 30
6 7 7 7 7 7 8 8 8 8 8 9 9 8 8 8 7 6 6 6 5 5 5 5 5 5 5 5 5 5 5 6 6 7 7 8 8 9 10 10 11 12 13 14 14 14 15 15 15 15 15 17 20 23 24 23 20 19 22 24 23 23 25
6 7 6 6 8 8 8 8 8 8 8 9 9 9 9 8 8 8 7 7 7 7 7 6 6 6 6 6 6 6 6 6 7 7 7 7 6 6 7 7 7 8 9 9 10 11 12 12 12 13 13 13 17 21 24 25 23 20 21 21 21 21 23
9 9 7 7 8 9 9 9 8 8 9 9 10 10 10 10 10 10 10 10 9 9 9 9 8 8 8 8 8 8 8 9 8 8 9 9 7 6 6 6 6 6 6 7 7 8 8 8 8 9 10 11 13 16 21 26 27 24 22 23 21 21 21
12 12 10 9 11 11 9 8 8 8 10 10 10 11 11 11 12 12 13 13 13 12 12 11 11 11 11 11 11 11 11 11 11 10 11 11 10 9 8 8 8 8 7 7 7 7 7 7 7 6 6 8 10 10 14 20 22 21 22 23 23 22 22
14 14 12 12 12 12 11 10 11 11 11 11 12 12 13 14 14 14 15 15 16 15 15 14 14 14 13 13 13 13 14 13 13 13 14 13 12 12 12 11 11 11 10 10 9 9 9 9 8 7 6 8 8 7 8 11 13 14 15 16 16 17 18
16 15 14 14 14 14 14 14 15 15 14 15 15 15 15 16 16 16 17 17 18 17 17 16 16 16 15 14 14 15 15 15 14 15 16 15 14 14 15 15 14 14 14 13 13 13 12 12 11 10 10 10 10 10 9 9 10 11 11 11 12 12 12
16 17 16 16 16 16 16 17 18 18 18 18 18 18 18 18 18 18 19 19 19 19 18 18 17 17 16 15 16 16 16 16 16 16 17 17 16 16 17 18 17 17 16 17 17 17 16 15 15 14 14 13 13 14 14 13 13 14 14 14 14 14 14
Wind_Direction
202 201 197 193 194 197 201 201 196 196 200 201 200 202 209 211 207 207 211 212 210 206 203 202 205 212 219 220 215 207 206 209 201 198 203 199 199 206 203 200 205 210 211 210 210 212 209 209 210 209 211 209 209 214 213 215 214 207 209 209 201 203 204
203 201 196 193 193 196 203 203 197 199 203 203 201 201 207 215 213 208 209 211 210 208 206 203 204 209 216 223 221 212 210 211 209 207 204 196 198 211 210 201 206 212 212 215 218 218 214 214 215 213 215 215 213 217 219 221 224 218 216 217 214 214 212
204 202 197 193 193 196 202 203 198 201 203 202 204 202 203 215 220 215 210 211 212 210 208 205 204 206 210 219 225 224 220 216 215 213 209 204 203 213 215 205 210 216 210 212 217 217 215 215 218 217 216 218 218 220 223 224 227 224 220 222 222 220 223
207 202 200 197 195 194 198 202 200 201 203 202 204 204 204 212 219 219 215 213 214 214 212 208 206 206 208 212 220 227 228 226 226 220 214 216 215 214 214 209 216 222 214 212 215 217 218 217 221 221 217 218 218 220 226 225 226 226 222 224 224 221 228
207 202 201 201 197 195 198 201 200 201 202 202 204 204 207 211 214 218 219 217 216 216 215 213 210 210 209 210 215 220 225 229 232 231 226 228 228 224 225 223 225 228 225 224 222 222 224 222 224 226 222 221 219 219 225 225 225 226 226 228 223 222 231
204 202 201 200 198 198 201 201 200 200 201 204 207 206 209 212 211 215 218 219 220 217 216 216 215 214 212 212 214 216 219 223 227 232 234 234 233 230 229 232 235 234 231 233 231 228 227 225 225 227 226 226 224 224 227 228 228 232 234 234 229 226 233
202 201 201 202 200 199 202 205 206 204 202 207 210 208 211 213 211 214 216 215 216 217 217 216 214 216 216 215 216 217 219 222 223 227 232 235 238 236 229 229 235 239 238 238 239 240 238 231 228 228 229 230 230 231 233 232 232 237 242 241 236 235 236
202 200 202 203 203 204 207 210 213 214 213 214 215 213 214 216 217 219 219 215 207 204 210 216 214 216 218 218 219 220 221 223 224 226 228 230 235 240 240 237 237 241 242 237 238 243 244 242 235 231 229 230 234 237 238 239 240 242 245 244 241 242 241
203 201 203 204 204 207 211 213 215 219 223 224 222 217 216 220 223 225 228 224 209 193 199 211 214 216 217 218 221 224 225 226 228 231 232 231 231 235 241 244 242 246 247 245 246 245 244 246 243 236 235 236 240 245 245 246 247 245 246 247 245 248 248
204 202 202 204 204 207 212 215 215 219 226 229 227 223 220 224 228 231 234 228 211 196 203 209 212 217 218 220 222 224 227 229 230 233 234 234 234 234 239 242 242 245 247 249 252 247 243 248 247 239 239 240 242 247 248 247 247 246 246 248 248 253 256
199 203 202 201 202 207 212 214 214 217 222 226 229 229 229 231 230 231 233 226 211 208 213 210 213 220 222 224 226 226 228 230 233 235 235 235 236 237 240 243 243 242 243 247 252 250 247 252 254 247 242 243 244 246 248 249 250 249 248 250 249 253 259
191 199 200 198 202 208 212 213 214 216 219 222 226 230 234 236 232 229 230 227 223 224 220 212 214 221 224 226 228 228 229 231 234 237 238 238 239 240 241 244 247 246 244 244 247 251 253 255 257 254 248 249 249 247 248 250 250 250 249 250 252 254 260
184 191 196 198 203 207 209 212 215 217 219 222 226 230 233 235 232 227 224 223 226 232 231 222 218 222 227 229 231 233 233 235 236 239 241 242 242 242 242 244 248 250 249 246 243 244 250 253 254 254 250 252 255 252 248 246 246 249 249 249 253 254 253
182 190 195 198 206 207 207 211 215 218 221 224 228 232 235 235 232 227 223 223 227 232 235 233 228 229 232 233 235 238 238 237 238 237 238 241 244 246 245 244 246 248 249 248 244 242 245 249 254 255 251 250 257 259 255 248 245 246 247 250 256 256 252
186 192 190 194 203 205 207 211 215 219 222 226 230 233 234 234 231 225 222 225 229 230 234 237 235 233 235 236 239 241 242 241 240 236 235 238 243 245 246 245 245 247 247 247 247 245 244 246 251 256 255 250 250 255 256 252 246 243 243 247 254 256 254
183 189 187 191 196 198 205 212 215 217 218 221 225 227 228 230 229 225 222 224 229 231 235 240 240 237 238 239 242 245 248 249 249 248 246 246 246 245 244 242 241 243 246 247 249 249 245 244 246 252 257 257 252 251 254 253 249 243 240 240 244 248 251
175 181 184 186 188 189 197 204 208 213 215 217 220 221 224 227 228 226 225 227 230 230 231 237 241 240 240 243 246 249 252 255 256 257 257 256 255 253 250 245 240 240 241 241 244 246 247 246 246 249 254 260 261 257 252 252 249 244 242 240 238 239 244
179 184 183 182 181 183 189 195 199 205 209 213 217 220 222 225 226 226 226 228 228 225 224 230 237 241 243 245 248 250 252 254 257 259 259 259 260 262 261 258 252 248 246 242 239 238 240 243 244 243 244 251 259 258 255 255 252 246 243 241 238 237 238
185 196 196 193 191 191 195 195 194 197 202 207 210 213 217 221 223 224 225 227 226 226 230 237 242 245 246 249 251 253 254 255 256 257 258 259 259 262 265 266 264 260 257 254 250 244 242 243 244 243 239 237 244 249 253 257 256 252 249 245 243 242 241
209 211 208 205 202 202 204 202 199 200 202 204 207 210 214 219 223 225 226 227 228 231 237 244 249 250 250 252 253 254 254 254 254 253 255 257 259 260 262 265 266 265 262 259 256 252 249 246 244 246 245 240 240 244 248 252 253 253 252 249 248 247 246
220 220 215 213 208 203 200 200 204 207 205 204 210 216 217 220 225 227 228 230 232 236 241 247 251 253 253 253 253 252 252 252 253 254 254 256 259 262 263 262 262 262 261 258 253 250 249 247 243 243 246 247 246 246 248 251 254 255 255 254 253 252 249
221 223 217 214 212 206 200 199 202 206 206 205 210 215 217 220 224 227 229 232 235 238 242 246 248 250 251 251 252 253 253 254 256 257 259 260 261 263 265 264 261 258 256 255 252 247 247 248 246 243 243 245 245 244 244 248 254 256 257 258 258 255 252
223 228 222 214 210 205 203 203 204 207 210 209 210 214 219 221 224 227 229 231 233 236 239 241 243 245 247 249 250 252 253 255 256 257 258 260 261 262 264 264 264 261 256 254 253 250 247 247 248 246 245 246 245 242 243 247 253 258 259 258 258 257 253
227 231 228 216 208 205 203 204 206 211 214 214 215 217 221 223 226 228 229 230 232 234 237 240 242 243 245 248 249 249 250 252 254 254 255 257 259 261 261 262 264 262 258 254 253 253 252 250 249 246 245 248 247 245 246 247 250 256 259 258 257 255 253
233 231 222 212 209 210 212 213 216 218 219 222 223 223 224 227 231 233 234 235 237 238 238 240 241 242 244 247 249 248 249 251 252 254 256 258 260 261 260 260 260 260 258 255 254 255 256 255 254 249 244 245 247 248 248 248 248 251 254 256 256 253 251
239 224 206 198 195 195 202 211 217 221 225 230 234 233 230 232 235 236 237 239 241 240 238 238 240 241 243 246 246 246 246 248 250 252 255 258 259 259 257 256 257 258 257 256 256 256 257 257 259 255 248 245 248 250 250 250 250 250 250 252 254 253 254
196 174 171 177 183 188 195 201 206 214 220 225 232 234 229 226 228 227 226 229 233 234 233 234 236 237 240 245 245 241 241 244 247 249 253 255 256 257 256 255 256 257 257 256 256 256 256 256 258 260 256 252 252 253 254 252 251 250 250 250 250 250 254
156 152 167 182 189 192 197 201 207 217 222 224 229 233 231 228 225 222 223 224 225 228 230 232 236 238 241 248 250 244 240 242 244 247 252 254 253 254 256 255 255 257 258 258 255 254 254 254 255 257 260 260 258 258 258 256 252 248 247 247 247 248 250
172 175 186 194 195 199 206 209 212 221 231 236 240 239 236 232 227 224 225 226 225 226 229 234 240 245 247 248 250 248 242 241 243 247 252 254 253 250 251 253 255 256 256 256 256 255 254 254 255 254 254 257 257 253 251 251 249 246 245 246 246 245 246
196 201 208 211 211 213 218 217 213 217 224 231 237 235 230 224 219 217 218 219 219 221 225 231 236 242 245 243 244 246 246 246 248 251 253 253 252 251 252 253 256 258 259 259 259 261 260 257 258 258 254 249 246 245 242 240 239 241 243 244 245 245 245
202 207 213 218 219 214 212 210 209 211 212 212 214 216 213 208 205 204 201 202 207 212 218 225 227 229 234 237 239 244 249 253 256 256 253 253 257 260 260 258 259 262 264 265 265 265 263 258 256 260 255 244 239 244 248 248 246 245 242 242 245 247 249
208 223 224 222 220 216 213 213 212 210 208 207 206 206 208 211 213 211 204 202 208 216 223 228 229 229 232 236 243 251 256 259 261 260 259 262 268 271 268 265 266 266 266 268 268 265 262 258 255 258 256 247 243 246 250 254 258 254 246 243 245 250 253
220 246 248 227 220 220 221 225 227 223 219 218 217 215 216 219 224 228 230 230 230 230 234 235 234 237 239 241 246 251 256 262 265 266 266 267 269 272 273 272 272 271 269 267 264 263 262 260 257 256 255 252 249 247 246 248 250 250 250 252 250 251 253
245 264 271 254 242 240 237 237 238 237 235 234 232 232 233 234 236 240 243 245 244 242 243 244 242 241 242 245 249 251 253 257 261 265 268 270 271 272 274 274 271 266 264 262 260 260 260 259 256 255 254 252 251 247 244 246 248 248 254 260 258 252 251
249 258 264 261 255 252 251 250 246 243 245 246 246 247 248 247 247 249 250 252 253 253 254 255 254 253 252 252 253 256 257 259 261 262 264 268 272 273 269 268 269 266 261 258 257 257 259 259 258 258 256 256 256 249 245 249 252 253 254 256 258 257 256
247 252 254 251 249 250 254 256 253 251 252 253 253 255 257 256 255 254 254 255 257 257 258 259 260 261 262 263 263 262 262 263 264 263 263 262 264 266 265 263 264 265 263 260 257 254 255 257 257 255 253 256 260 254 243 247 254 255 252 251 254 256 256
247 249 248 244 244 247 248 250 252 253 253 253 254 256 257 258 258 257 256 258 259 259 260 261 261 262 264 266 267 267 267 268 266 266 267 265 262 263 264 262 261 261 262 261 259 255 253 253 252 250 249 252 257 256 251 250 253 254 253 252 252 252 251
251 255 255 251 250 249 244 243 246 248 251 252 253 253 253 254 257 258 259 260 260 260 260 260 261 262 262 264 266 268 269 270 269 269 271 272 269 266 264 263 262 261 260 259 258 257 255 255 253 250 248 248 251 253 253 252 253 255 257 256 255 254 254
Height
3176 3178 3180 3183 3186 3189 3190 3192 3195 3196 3198 3199 3201 3202 3203 3204 3207 3209 3210 3212 3213 3215 3216 3217 3218 3220 3221 3223 3224 3225 3226 3227 3229 3230 3231 3232 3233 3234 3234 3234 3235 3236 3237 3237 3238 3239 3240 3240 3241 3242 3243 3243 3244 3245 3246 3246 3247 3247 3248 3248 3249 3249 3250
3173 3176 3179 3182 3185 3187 3189 3192 3194 3195 3197 3198 3200 3202 3202 3203 3205 3208 3209 3211 3213 3214 3216 3217 3218 3219 3221 3222 3223 3224 3226 3227 3228 3230 3231 3232 3233 3234 3234 3235 3235 3236 3237 3237 3238 3239 3239 3240 3240 3241 3242 3243 3243 3244 3245 3246 3246 3247 3248 3248 3248 3249 3249
3170 3173 3178 3181 3183 3186 3188 3190 3193 3194 3196 3198 3199 3201 3202 3202 3204 3206 3209 3210 3212 3213 3215 3216 3217 3218 3220 3221 3222 3224 3225 3227 3228 3229 3230 3231 3232 3233 3234 3235 3235 3236 3236 3237 3238 3238 3239 3239 3240 3240 3241 3242 3243 3243 3244 3245 3246 3247 3247 3248 3248 3248 3249
3169 3172 3177 3179 3181 3184 3187 3189 3191 3193 3195 3197 3198 3200 3202 3202 3203 3205 3208 3210 3211 3213 3214 3216 3217 3218 3219 3220 3222 3223 3224 3226 3227 3228 3229 3230 3232 3233 3234 3235 3235 3235 3236 3237 3237 3238 3238 3239 3239 3240 3240 3241 3242 3243 3243 3244 3245 3245 3246 3247 3247 3248 3248
3168 3171 3175 3178 3180 3183 3185 3188 3190 3192 3194 3196 3197 3199 3200 3201 3203 3205 3206 3208 3210 3212 3213 3215 3216 3217 3219 3220 3221 3222 3224 3225 3226 3227 3228 3230 3231 3232 3233 3234 3235 3236 3236 3236 3237 3237 3237 3238 3238 3239 3240 3240 3241 3241 3242 3243 3243 3244 3245 3246 3246 3247 3247
3166 3169 3173 3176 3179 3181 3184 3187 3189 3191 3193 3194 3196 3197 3199 3201 3203 3204 3206 3207 3209 3210 3212 3213 3215 3216 3218 3219 3220 3222 3223 3225 3226 3227 3228 3229 3230 3231 3232 3233 3234 3235 3235 3236 3236 3237 3237 3237 3238 3239 3239 3240 3240 3241 3241 3242 3243 3243 3244 3245 3245 3246 3246
3166 3169 3172 3175 3178 3180 3183 3185 3187 3189 3191 3192 3194 3196 3198 3199 3201 3203 3205 3206 3207 3209 3211 3212 3213 3215 3216 3218 3219 3221 3222 3224 3226 3227 3228 3229 3230 3231 3232 3233 3233 3233 3234 3235 3235 3236 3236 3237 3237 3238 3238 3239 3239 3240 3241 3242 3242 3242 3243 3244 3244 3245 3245
3165 3168 3171 3174 3177 3179 3181 3183 3186 3188 3190 3191 3193 3195 3197 3198 3200 3202 3203 3204 3203 3205 3208 3211 3212 3214 3215 3216 3218 3220 3221 3223 3224 3226 3227 3228 3229 3230 3231 3232 3232 3233 3233 3234 3235 3235 3235 3236 3236 3237 3237 3238 3239 3239 3240 3241 3241 3242 3242 3243 3243 3244 3245
3164 3166 3170 3173 3176 3178 3180 3182 3184 3186 3188 3190 3192 3194 3195 3196 3198 3200 3202 3205 3203 3202 3205 3209 3211 3212 3214 3215 3217 3218 3220 3222 3223 3225 3226 3227 3228 3229 3229 3230 3231 3232 3232 3233 3234 3234 3235 3235 3236 3236 3236 3237 3238 3239 3240 3240 3241 3241 3242 3242 3243 3243 3244
3162 3165 3168 3172 3175 3177 3179 3181 3183 3185 3186 3188 3190 3192 3193 3196 3198 3199 3202 3206 3205 3203 3205 3208 3209 3211 3212 3214 3216 3217 3219 3220 3222 3223 3224 3226 3227 3228 3229 3229 3230 3231 3231 3232 3233 3234 3235 3235 3235 3236 3236 3236 3237 3238 3239 3240 3240 3241 3241 3241 3242 3243 3243
3162 3164 3166 3169 3173 3176 3177 3179 3182 3183 3185 3186 3188 3190 3191 3194 3197 3198 3200 3204 3205 3204 3206 3207 3208 3210 3211 3213 3215 3216 3218 3219 3220 3221 3223 3224 3226 3227 3228 3228 3229 3230 3231 3232 3232 3233 3234 3234 3234 3235 3236 3236 3237 3237 3238 3239 3239 3240 3240 3241 3241 3242 3242
3162 3163 3164 3167 3170 3173 3175 3178 3180 3182 3183 3185 3186 3187 3189 3191 3194 3196 3198 3200 3202 3203 3205 3206 3206 3208 3211 3212 3214 3215 3217 3218 3219 3220 3221 3223 3224 3225 3227 3228 3228 3229 3230 3231 3232 3232 3232 3233 3233 3234 3235 3235 3236 3237 3237 3238 3238 3239 3240 3240 3240 3241 3241
3160 3162 3164 3166 3168 3170 3173 3176 3178 3180 3182 3183 3184 3185 3186 3188 3191 3194 3196 3198 3199 3201 3203 3204 3204 3206 3209 3211 3212 3214 3215 3216 3218 3219 3220 3222 3223 3224 3226 3227 3228 3228 3229 3230 3231 3231 3232 3232 3232 3234 3234 3234 3235 3236 3236 3237 3237 3238 3239 3239 3240 3241 3241
3158 3160 3162 3164 3166 3168 3171 3174 3176 3178 3180 3181 3183 3183 3184 3186 3189 3192 3194 3196 3198 3199 3201 3202 3203 3205 3207 3209 3211 3212 3213 3215 3216 3217 3218 3220 3222 3223 3225 3226 3227 3228 3228 3229 3229 3230 3231 3231 3231 3232 3233 3234 3234 3234 3235 3236 3236 3237 3238 3239 3240 3240 3241
3157 3159 3161 3162 3164 3166 3168 3171 3173 3175 3178 3180 3181 3182 3184 3186 3188 3190 3192 3194 3196 3197 3199 3200 3202 3204 3205 3207 3208 3209 3211 3212 3213 3215 3216 3218 3220 3221 3223 3225 3226 3227 3227 3228 3228 3229 3230 3231 3231 3230 3231 3232 3233 3233 3233 3234 3235 3235 3236 3237 3238 3239 3240
3155 3158 3160 3161 3162 3164 3166 3170 3172 3174 3176 3179 3180 3182 3183 3184 3186 3188 3190 3192 3194 3195 3197 3198 3200 3202 3203 3205 3206 3207 3208 3209 3212 3214 3216 3217 3218 3219 3220 3221 3223 3224 3225 3226 3227 3228 3228 3229 3230 3230 3230 3230 3231 3232 3231 3231 3233 3234 3234 3235 3237 3238 3239
3155 3158 3160 3160 3161 3163 3166 3169 3171 3173 3175 3177 3178 3179 3181 3182 3184 3186 3188 3190 3191 3193 3194 3196 3197 3199 3201 3202 3204 3204 3205 3207 3210 3212 3214 3215 3217 3218 3219 3219 3220 3221 3222 3224 3225 3226 3226 3227 3228 3229 3229 3229 3230 3230 3229 3229 3231 3232 3233 3234 3234 3235 3237
3155 3157 3159 3159 3159 3161 3163 3165 3167 3170 3173 3175 3176 3177 3178 3180 3181 3183 3185 3187 3189 3190 3192 3193 3194 3196 3198 3200 3201 3202 3203 3205 3207 3209 3211 3213 3214 3215 3216 3218 3219 3221 3222 3223 3222 3222 3223 3225 3226 3226 3227 3228 3228 3227 3226 3228 3230 3230 3231 3232 3232 3233 3235
3155 3156 3157 3157 3157 3159 3161 3163 3165 3167 3169 3170 3171 3173 3175 3177 3179 3181 3184 3186 3187 3189 3190 3191 3193 3194 3196 3197 3198 3199 3201 3203 3205 3206 3208 3209 3210 3212 3212 3214 3216 3218 3220 3221 3221 3220 3221 3222 3223 3223 3224 3224 3224 3223 3224 3226 3228 3228 3229 3230 3231 3232 3233
3155 3155 3156 3156 3157 3159 3161 3162 3164 3165 3165 3167 3169 3170 3171 3174 3177 3180 3182 3184 3185 3187 3188 3190 3191 3192 3193 3194 3195 3196 3198 3199 3201 3202 3204 3205 3206 3208 3209 3210 3212 3213 3215 3217 3218 3219 3219 3220 3220 3221 3221 3222 3221 3221 3223 3224 3225 3226 3227 3227 3229 3230 3231
3154 3154 3155 3155 3157 3159 3161 3162 3163 3163 3163 3165 3168 3170 3171 3172 3175 3177 3180 3182 3183 3185 3186 3187 3188 3189 3190 3191 3192 3194 3195 3196 3197 3198 3200 3201 3202 3203 3205 3206 3207 3209 3211 3213 3214 3216 3216 3215 3215 3217 3219 3220 3220 3220 3221 3221 3223 3224 3224 3225 3227 3228 3229
3152 3153 3154 3155 3156 3158 3160 3161 3163 3163 3163 3164 3167 3169 3170 3171 3173 3175 3178 3180 3181 3182 3184 3185 3186 3187 3187 3189 3190 3191 3192 3193 3194 3195 3197 3198 3198 3199 3201 3202 3203 3204 3206 3208 3209 3211 3211 3211 3212 3213 3215 3216 3217 3218 3219 3219 3220 3221 3222 3223 3224 3226 3227
3151 3153 3154 3156 3157 3157 3158 3160 3161 3162 3164 3165 3166 3168 3170 3172 3173 3174 3176 3178 3179 3180 3181 3183 3184 3185 3185 3186 3187 3188 3190 3191 3192 3193 3193 3194 3195 3196 3197 3197 3198 3200 3201 3203 3204 3205 3206 3208 3209 3210 3211 3212 3213 3215 3216 3217 3218 3219 3219 3220 3222 3223 3224
3151 3153 3155 3156 3156 3156 3157 3158 3159 3161 3162 3164 3166 3168 3169 3170 3171 3172 3174 3176 3177 3178 3179 3180 3182 3183 3183 3185 3185 3186 3188 3189 3189 3190 3190 3191 3192 3193 3194 3194 3194 3195 3196 3198 3199 3199 3201 3203 3205 3206 3207 3208 3209 3211 3213 3214 3215 3216 3217 3218 3219 3220 3220
3151 3153 3154 3155 3156 3157 3158 3158 3159 3160 3162 3162 3164 3165 3167 3167 3169 3170 3172 3173 3174 3176 3177 3178 3179 3180 3181 3182 3183 3184 3185 3186 3187 3187 3188 3188 3190 3190 3190 3190 3191 3191 3192 3194 3195 3196 3197 3198 3199 3201 3203 3203 3205 3207 3209 3210 3211 3213 3214 3215 3216 3216 3216
3152 3153 3154 3155 3156 3157 3158 3158 3159 3161 3162 3162 3163 3164 3166 3167 3168 3170 3171 3172 3172 3174 3175 3176 3177 3178 3179 3180 3181 3182 3183 3184 3185 3185 3185 3186 3187 3187 3187 3188 3188 3188 3189 3190 3191 3192 3193 3194 3196 3197 3198 3200 3202 3204 3205 3206 3208 3209 3210 3211 3212 3213 3213
3153 3154 3155 3156 3156 3157 3157 3158 3160 3161 3162 3162 3163 3164 3165 3166 3167 3169 3170 3171 3171 3173 3174 3175 3176 3177 3178 3179 3179 3180 3182 3182 3183 3183 3183 3184 3184 3185 3185 3186 3186 3185 3186 3188 3189 3189 3190 3191 3193 3194 3195 3197 3199 3200 3201 3202 3203 3204 3206 3207 3208 3209 3210
3154 3155 3155 3156 3157 3157 3158 3159 3159 3161 3162 3163 3164 3164 3165 3165 3166 3168 3169 3170 3171 3172 3173 3174 3175 3176 3177 3177 3178 3179 3180 3181 3181 3181 3181 3182 3182 3183 3183 3184 3184 3184 3184 3185 3186 3186 3188 3189 3190 3192 3193 3193 3195 3196 3197 3197 3199 3200 3201 3202 3204 3205 3206
3155 3156 3156 3157 3157 3158 3158 3159 3160 3161 3162 3163 3164 3165 3165 3165 3166 3167 3168 3169 3170 3171 3172 3172 3173 3174 3175 3176 3177 3178 3178 3179 3179 3180 3180 3180 3180 3181 3181 3182 3182 3182 3182 3183 3184 3184 3186 3187 3188 3189 3190 3191 3192 3193 3194 3194 3195 3196 3197 3198 3199 3200 3202
3156 3157 3157 3157 3158 3158 3159 3159 3160 3160 3161 3162 3163 3164 3164 3165 3166 3166 3167 3168 3169 3169 3170 3171 3171 3172 3173 3174 3175 3176 3176 3177 3178 3178 3178 3178 3178 3179 3179 3180 3180 3180 3180 3181 3181 3182 3183 3185 3185 3186 3187 3189 3189 3190 3191 3191 3191 3192 3193 3194 3195 3196 3197
3157 3156 3156 3157 3158 3159 3159 3159 3159 3160 3160 3161 3162 3163 3164 3165 3166 3166 3167 3167 3168 3168 3169 3170 3170 3171 3172 3172 3173 3174 3175 3175 3176 3176 3176 3177 3177 3177 3178 3178 3178 3179 3179 3179 3179 3180 3181 3182 3183 3183 3184 3185 3186 3187 3187 3188 3189 3190 3190 3190 3192 3193 3194
3157 3156 3156 3157 3158 3158 3159 3159 3159 3160 3161 3161 3162 3163 3164 3165 3165 3166 3167 3167 3168 3168 3169 3169 3170 3170 3171 3172 3172 3173 3173 3174 3174 3175 3175 3176 3176 3176 3176 3177 3177 3177 3178 3178 3178 3179 3179 3180 3180 3181 3182 3183 3183 3184 3184 3185 3187 3188 3187 3187 3189 3191 3192
3156 3156 3157 3158 3158 3158 3158 3159 3159 3160 3161 3162 3162 3163 3164 3164 3165 3166 3167 3167 3168 3169 3169 3169 3170 3170 3171 3171 3172 3172 3173 3173 3173 3174 3174 3175 3175 3176 3176 3176 3176 3177 3177 3177 3177 3177 3177 3178 3179 3179 3180 3181 3181 3181 3182 3183 3184 3185 3185 3186 3188 3189 3189
3156 3157 3158 3158 3158 3157 3158 3158 3159 3160 3161 3162 3163 3164 3164 3165 3165 3166 3167 3168 3168 3168 3169 3169 3170 3170 3171 3171 3171 3172 3172 3172 3173 3173 3173 3174 3174 3175 3175 3175 3175 3176 3176 3176 3176 3176 3177 3177 3177 3178 3178 3179 3179 3180 3180 3180 3181 3182 3184 3185 3186 3187 3187
3156 3157 3158 3158 3158 3158 3158 3159 3159 3160 3161 3162 3163 3164 3164 3165 3165 3166 3167 3167 3168 3168 3169 3169 3169 3170 3170 3170 3171 3171 3171 3172 3172 3173 3173 3173 3174 3174 3174 3174 3174 3175 3175 3176 3176 3176 3176 3176 3176 3177 3177 3177 3177 3178 3178 3178 3178 3180 3182 3183 3183 3184 3184
3156 3156 3157 3157 3157 3157 3158 3158 3159 3159 3160 3161 3162 3163 3164 3164 3164 3165 3165 3166 3167 3167 3168 3168 3168 3169 3169 3170 3170 3170 3170 3170 3171 3171 3171 3172 3173 3173 3173 3173 3173 3173 3174 3174 3175 3175 3175 3175 3175 3176 3176 3176 3176 3177 3177 3177 3177 3178 3180 3180 3181 3181 3181
3155 3155 3155 3156 3156 3156 3157 3158 3158 3159 3159 3160 3161 3162 3162 3163 3163 3163 3164 3165 3166 3166 3166 3166 3167 3167 3168 3168 3169 3169 3169 3169 3170 3169 3169 3170 3171 3172 3172 3172 3172 3172 3173 3173 3173 3174 3174 3174 3174 3175 3175 3175 3175 3176 3176 3176 3177 3177 3178 3178 3179 3179 3180
3153 3154 3154 3154 3155 3155 3156 3156 3157 3157 3158 3159 3160 3160 3161 3161 3161 3162 3162 3163 3164 3164 3165 3165 3165 3166 3166 3167 3167 3167 3167 3167 3168 3168 3168 3168 3169 3169 3169 3170 3170 3171 3171 3171 3171 3172 3172 3173 3173 3173 3174 3174 3174 3174 3175 3175 3176 3176 3176 3177 3177 3177 3178